When you browse on this site, cookies collect data to enhance your experience and personalize the content and advertising you see.
Visit our Privacy Policy to learn more. By continuing to use the site, you agree to this use of cookies and data.
  • In Czech Republic
  • List of Countries
  • For 7 days
  • Water Temperature
  • Satellite Maps
  • Weather Map
  • Weather Widgets
  • user-avatar
    Login

    Hourly Weather Rogatin

    Today, 10 December, Monday

    Time Temperature Precipitation Wind Pressure Humidity
    00:00 +2°C° 0 mm 3 mps 728 mmHg 82%
    01:00 +2°C° 0 mm 3 mps 728 mmHg 83%
    02:00 +2°C° 0 mm 2 mps 728 mmHg 85%
    03:00 +2°C° 0 mm 2 mps 728 mmHg 85%
    04:00 +3°C° 0 mm 2 mps 728 mmHg 84%
    05:00 +3°C° 0 mm 2 mps 728 mmHg 84%
    06:00 +3°C° 0.1 mm 2 mps 728 mmHg 85%
    07:00 +1°C° 0.1 mm 3 mps 728 mmHg 85%
    08:00 +1°C° 0 mm 3 mps 728 mmHg 85%
    09:00 +2°C° 0.3 mm 3 mps 729 mmHg 85%
    10:00 +2°C° 0.3 mm 3 mps 729 mmHg 85%
    11:00 +3°C° 0.3 mm 4 mps 729 mmHg 84%
    12:00 +3°C° 0.1 mm 4 mps 730 mmHg 84%
    13:00 +3°C° 0.1 mm 4 mps 730 mmHg 83%
    14:00 +3°C° 0.1 mm 4 mps 730 mmHg 82%
    15:00 +3°C° 0 mm 4 mps 731 mmHg 82%
    16:00 +1°C° 0 mm 4 mps 731 mmHg 83%
    17:00 +1°C° 0 mm 4 mps 731 mmHg 84%
    18:00 0°C° 0 mm 4 mps 732 mmHg 84%
    19:00 0°C° 0 mm 4 mps 732 mmHg 85%
    20:00 -1°C° 0 mm 4 mps 732 mmHg 85%
    21:00 -1°C° 0 mm 4 mps 732 mmHg 86%
    22:00 -2°C° 0 mm 4 mps 733 mmHg 88%
    23:00 -1°C° 0 mm 3 mps 733 mmHg 89%

    Tomorrow, 11 December, Tuesday

    Time Temperature Precipitation Wind Pressure Humidity
    00:00 -1°C° 0 mm 3 mps 733 mmHg 90%
    01:00 -1°C° 0 mm 3 mps 733 mmHg 90%
    02:00 -1°C° 0 mm 3 mps 734 mmHg 91%
    03:00 -1°C° 0 mm 3 mps 734 mmHg 91%
    04:00 -2°C° 0 mm 3 mps 734 mmHg 92%
    05:00 -2°C° 0 mm 3 mps 734 mmHg 92%
    06:00 -1°C° 0 mm 3 mps 734 mmHg 91%
    07:00 -1°C° 0 mm 3 mps 734 mmHg 90%
    08:00 -1°C° 0 mm 2 mps 735 mmHg 89%
    09:00 +1°C° 0 mm 2 mps 735 mmHg 86%
    10:00 +1°C° 0 mm 2 mps 735 mmHg 83%
    11:00 +2°C° 0 mm 2 mps 735 mmHg 80%
    12:00 +2°C° 0 mm 2 mps 735 mmHg 77%
    13:00 +2°C° 0 mm 2 mps 735 mmHg 75%
    14:00 +4°C° 0 mm 1 mps 735 mmHg 72%
    15:00 +3°C° 0 mm 1 mps 735 mmHg 75%
    16:00 +2°C° 0 mm 1 mps 735 mmHg 79%
    17:00 0°C° 0 mm 0 mps 736 mmHg 82%
    18:00 0°C° 0 mm 0 mps 736 mmHg 83%
    19:00 0°C° 0 mm 1 mps 736 mmHg 84%
    20:00 0°C° 0 mm 1 mps 736 mmHg 84%
    21:00 0°C° 0 mm 1 mps 736 mmHg 84%
    22:00 0°C° 0 mm 1 mps 736 mmHg 84%
    23:00 0°C° 0 mm 1 mps 736 mmHg 84%

    Day after tomorrow, 12 December, Wednesday

    Time Temperature Precipitation Wind Pressure Humidity
    00:00 0°C° 0 mm 1 mps 736 mmHg 83%
    01:00 0°C° 0 mm 1 mps 736 mmHg 83%
    02:00 0°C° 0 mm 1 mps 737 mmHg 82%
    03:00 0°C° 0 mm 1 mps 736 mmHg 82%
    04:00 0°C° 0 mm 1 mps 736 mmHg 82%
    05:00 0°C° 0 mm 1 mps 736 mmHg 82%
    06:00 0°C° 0 mm 1 mps 737 mmHg 83%
    07:00 0°C° 0 mm 1 mps 737 mmHg 83%
    08:00 0°C° 0 mm 1 mps 737 mmHg 84%
    09:00 0°C° 0 mm 1 mps 737 mmHg 81%
    10:00 -1°C° 0 mm 2 mps 737 mmHg 79%
    11:00 -1°C° 0 mm 3 mps 737 mmHg 77%
    12:00 0°C° 0 mm 3 mps 737 mmHg 77%
    13:00 -1°C° 0 mm 4 mps 737 mmHg 76%
    14:00 -1°C° 0 mm 4 mps 736 mmHg 76%
    15:00 -1°C° 0 mm 4 mps 736 mmHg 79%
    16:00 -2°C° 0 mm 4 mps 736 mmHg 82%
    17:00 -2°C° 0 mm 4 mps 736 mmHg 85%
    18:00 -4°C° 0.1 mm 5 mps 736 mmHg 86%
    19:00 -4°C° 0.1 mm 5 mps 736 mmHg 87%
    20:00 -4°C° 0.1 mm 6 mps 736 mmHg 88%
    21:00 -4°C° 0.3 mm 6 mps 736 mmHg 88%
    22:00 -4°C° 0.3 mm 6 mps 736 mmHg 89%
    23:00 -4°C° 0.3 mm 6 mps 736 mmHg 89%

    13 December, Thursday

    Time Temperature Precipitation Wind Pressure Humidity
    00:00 -4°C° 0.5 mm 6 mps 736 mmHg 89%
    01:00 -4°C° 0.5 mm 6 mps 736 mmHg 89%
    02:00 -4°C° 0.5 mm 6 mps 736 mmHg 89%
    03:00 -4°C° 0.5 mm 6 mps 735 mmHg 89%
    04:00 -4°C° 0.5 mm 6 mps 735 mmHg 90%
    05:00 -4°C° 0.5 mm 6 mps 735 mmHg 90%
    06:00 -4°C° 0.3 mm 6 mps 735 mmHg 90%
    07:00 -4°C° 0.3 mm 6 mps 735 mmHg 90%
    08:00 -4°C° 0.3 mm 6 mps 735 mmHg 90%
    09:00 -4°C° 0.3 mm 6 mps 735 mmHg 90%
    10:00 -4°C° 0.3 mm 6 mps 735 mmHg 90%
    11:00 -3°C° 0.3 mm 6 mps 735 mmHg 89%
    12:00 -3°C° 0.3 mm 6 mps 735 mmHg 89%
    13:00 -3°C° 0.3 mm 6 mps 735 mmHg 88%
    14:00 -3°C° 0.3 mm 6 mps 735 mmHg 88%
    15:00 -2°C° 0.2 mm 5 mps 735 mmHg 89%
    16:00 -2°C° 0.2 mm 5 mps 735 mmHg 90%
    17:00 -4°C° 0.2 mm 5 mps 736 mmHg 91%
    18:00 -3°C° 0.2 mm 4 mps 736 mmHg 91%
    19:00 -3°C° 0.2 mm 4 mps 736 mmHg 91%
    20:00 -3°C° 0.2 mm 4 mps 737 mmHg 92%
    21:00 -3°C° 0.1 mm 4 mps 737 mmHg 92%
    22:00 -3°C° 0.1 mm 4 mps 738 mmHg 92%
    23:00 -3°C° 0.1 mm 4 mps 738 mmHg 92%

    14 December, Friday

    Time Temperature Precipitation Wind Pressure Humidity
    00:00 -3°C° 0.1 mm 4 mps 738 mmHg 92%
    01:00 -2°C° 0.1 mm 3 mps 739 mmHg 92%
    02:00 -2°C° 0.1 mm 3 mps 739 mmHg 92%
    03:00 -2°C° 0 mm 3 mps 739 mmHg 92%
    04:00 -2°C° 0 mm 3 mps 740 mmHg 92%
    05:00 -2°C° 0 mm 3 mps 740 mmHg 93%
    06:00 -2°C° 0 mm 3 mps 740 mmHg 93%
    07:00 -2°C° 0 mm 3 mps 741 mmHg 93%
    08:00 -2°C° 0 mm 3 mps 741 mmHg 93%
    09:00 -2°C° 0 mm 3 mps 742 mmHg 92%
    10:00 -1°C° 0 mm 3 mps 743 mmHg 91%
    11:00 -1°C° 0 mm 3 mps 743 mmHg 90%
    12:00 -1°C° 0 mm 3 mps 744 mmHg 90%
    13:00 -1°C° 0 mm 3 mps 744 mmHg 90%
    14:00 +1°C° 0 mm 2 mps 744 mmHg 90%
    15:00 -1°C° 0 mm 2 mps 744 mmHg 91%
    16:00 -2°C° 0 mm 2 mps 745 mmHg 93%
    17:00 0°C° 0 mm 1 mps 745 mmHg 94%
    18:00 -1°C° 0 mm 1 mps 746 mmHg 94%
    19:00 -1°C° 0 mm 1 mps 746 mmHg 94%
    20:00 -2°C° 0 mm 1 mps 746 mmHg 95%
    21:00 -2°C° 0 mm 1 mps 747 mmHg 95%
    22:00 -2°C° 0 mm 1 mps 747 mmHg 95%
    23:00 -2°C° 0 mm 1 mps 747 mmHg 95%

    15 December, Saturday

    Time Temperature Precipitation Wind Pressure Humidity
    00:00 -3°C° 0 mm 0 mps 748 mmHg 95%
    01:00 -3°C° 0 mm 0 mps 748 mmHg 95%
    02:00 -3°C° 0 mm 0 mps 748 mmHg 95%
    03:00 -3°C° 0 mm 0 mps 748 mmHg 95%
    04:00 -3°C° 0 mm 0 mps 748 mmHg 95%
    05:00 -3°C° 0 mm 0 mps 749 mmHg 95%
    06:00 -2°C° 0 mm 0 mps 749 mmHg 94%
    07:00 -2°C° 0 mm 0 mps 749 mmHg 94%
    08:00 -2°C° 0 mm 0 mps 750 mmHg 94%
    09:00 -2°C° 0 mm 0 mps 750 mmHg 92%
    10:00 -1°C° 0 mm 0 mps 750 mmHg 91%
    11:00 -1°C° 0 mm 0 mps 751 mmHg 90%
    12:00 0°C° 0 mm 1 mps 751 mmHg 90%
    13:00 0°C° 0 mm 1 mps 750 mmHg 89%
    14:00 +1°C° 0 mm 1 mps 750 mmHg 89%
    15:00 0°C° 0 mm 1 mps 750 mmHg 90%
    16:00 -1°C° 0 mm 1 mps 751 mmHg 92%
    17:00 -2°C° 0 mm 1 mps 751 mmHg 93%
    18:00 -2°C° 0 mm 1 mps 751 mmHg 94%
    19:00 -1°C° 0 mm 1 mps 751 mmHg 94%
    20:00 -1°C° 0 mm 1 mps 751 mmHg 95%
    21:00 -1°C° 0 mm 1 mps 751 mmHg 95%
    22:00 -1°C° 0 mm 1 mps 752 mmHg 95%
    23:00 -2°C° 0 mm 1 mps 752 mmHg 95%
    Show more